SCP
0 0 0 0 0 0 0 0 0 0 0 0 0 0 0 0 0 0 0 0 0 1 1 1 0 0 0 0 0 0 0 0 0 1 1 1 1 1 0 0 0 0 0 0 0 0 0 0 0
0 0 0 0 0 0 0 0 0 0 0 0 0 0 0 0 0 0 0 0 0 1 1 1 0 0 0 0 0 0 0 0 0 1 1 1 1 1 0 0 0 0 0 0 0 0 0 0 0
0 0 0 0 0 0 0 0 0 0 0 0 0 0 0 0 0 0 0 0 0 1 1 1 0 0 0 0 0 0 0 0 0 0 1 1 1 1 0 0 0 0 0 0 0 0 0 0 0
0 0 0 0 0 0 0 0 0 0 0 0 0 0 0 0 0 0 0 0 0 0 1 1 1 1 0 0 0 0 0 0 0 0 0 1 1 0 0 0 0 0 1 1 0 0 0 0 0
0 0 0 0 0 0 0 0 0 0 0 0 0 0 0 0 0 0 0 0 0 0 1 1 1 1 1 1 1 1 1 1 1 1 1 1 1 1 1 1 1 1 1 1 1 1 1 1 0
0 0 0 0 0 0 0 0 0 0 0 0 0 0 0 0 1 1 1 1 1 1 1 1 1 1 1 1 1 1 1 1 1 1 1 1 1 1 1 1 1 1 1 1 1 1 1 1 1
0 0 0 0 0 0 0 0 0 0 0 0 0 0 1 1 1 1 1 1 1 1 1 2 2 3 3 3 2 2 1 1 1 1 1 1 1 1 1 1 1 1 1 1 1 1 1 1 1
0 0 0 0 0 0 0 0 0 0 0 0 0 0 1 1 2 2 2 2 2 2 2 3 3 4 4 4 4 3 2 2 2 1 1 1 1 1 1 1 1 1 1 1 1 1 1 1 1
0 0 0 0 0 0 0 0 0 0 0 0 1 1 1 2 2 3 3 3 3 3 3 3 3 4 4 5 4 4 3 3 2 2 2 2 2 1 1 1 2 2 2 2 2 1 1 1 1
0 0 0 0 0 0 0 0 0 0 1 1 1 1 1 2 2 3 3 3 3 3 3 3 3 3 4 4 4 4 4 4 3 3 3 3 2 2 2 2 3 2 2 2 2 2 2 1 1
0 0 0 0 0 0 0 0 0 1 1 1 2 1 1 2 2 3 3 3 3 2 2 2 3 3 3 4 4 5 5 5 5 4 4 4 4 3 4 4 4 3 3 2 2 2 2 2 2
0 0 0 0 0 0 0 0 0 1 1 1 2 2 2 2 2 3 3 2 2 2 2 2 3 3 3 3 4 5 6 6 6 5 4 4 4 4 5 5 4 4 3 3 3 2 2 2 2
0 0 0 0 0 0 0 0 1 1 2 2 2 2 2 3 3 3 2 2 2 3 3 2 3 3 3 3 4 4 5 5 5 5 4 4 4 5 5 5 5 4 4 4 3 2 2 2 2
0 0 0 0 0 0 0 0 1 1 2 2 3 3 3 4 4 4 3 3 3 3 3 2 2 3 3 3 3 3 3 4 4 4 4 4 4 5 5 4 4 4 4 4 4 3 2 2 2
0 0 0 0 0 0 0 0 1 1 1 2 2 3 4 4 4 4 3 3 3 3 3 3 3 3 3 3 3 3 3 3 3 3 3 3 3 4 4 3 3 3 3 4 4 3 2 2 2
0 0 0 0 0 0 0 0 1 1 1 1 2 3 3 3 3 3 3 3 3 3 3 3 4 4 3 3 2 3 3 3 3 2 2 2 3 3 3 3 2 2 2 3 3 3 3 2 2
0 0 0 0 0 0 0 0 1 1 1 1 1 2 2 2 2 2 2 3 3 4 4 4 4 4 3 3 3 3 3 3 2 2 2 2 2 2 3 3 3 3 2 2 3 3 3 3 2
0 0 0 0 0 0 0 1 1 1 1 1 1 1 1 1 1 2 2 2 3 3 3 3 3 3 2 2 2 2 3 2 2 2 2 2 2 2 3 3 3 3 2 2 2 2 3 2 2
0 0 0 0 0 1 1 1 1 1 1 1 1 1 1 1 1 1 1 1 1 2 1 1 2 2 2 2 2 2 2 2 2 2 2 2 2 2 2 3 3 2 2 1 2 2 2 2 2
0 0 0 0 0 1 1 1 1 1 1 1 1 1 1 1 1 1 1 1 1 1 1 1 1 1 1 1 1 1 1 1 1 1 2 2 2 2 2 2 2 2 2 1 1 1 1 1 1
0 0 0 0 0 0 1 1 1 1 1 0 0 1 1 1 1 1 1 0 0 0 0 1 1 1 1 1 0 1 1 1 1 1 1 1 2 2 2 2 2 2 2 1 1 1 1 1 1
0 0 0 0 0 0 0 0 0 0 0 0 0 0 0 0 0 0 0 0 0 0 0 0 1 1 1 0 0 0 0 0 0 1 1 1 1 1 2 2 3 2 2 2 1 1 1 1 1
0 0 0 0 0 0 0 0 1 1 0 0 0 0 0 0 0 0 0 0 0 0 0 0 0 1 1 0 0 0 0 0 0 0 0 0 0 1 1 2 3 3 3 3 2 2 2 1 1
0 0 0 0 0 0 0 0 1 1 1 1 0 0 0 0 0 0 0 0 0 0 0 0 0 0 1 1 0 0 0 0 0 0 0 0 0 0 0 1 2 3 4 4 3 3 3 2 2
0 0 0 0 0 0 0 0 1 1 1 1 0 0 0 0 0 0 0 0 0 0 0 0 0 0 0 0 0 0 0 0 0 0 0 0 0 0 0 0 1 2 3 4 4 4 4 3 3
0 0 0 0 0 0 0 1 1 1 1 1 0 0 0 0 0 0 0 0 0 0 0 0 0 0 0 0 0 0 0 0 0 0 0 0 0 0 0 0 0 0 1 2 3 4 4 3 3
0 0 0 0 0 0 0 1 1 1 1 0 0 0 0 0 0 0 0 0 0 0 0 0 0 0 0 0 0 0 0 0 0 0 0 0 0 0 0 0 0 0 0 1 1 2 3 3 3
0 0 0 0 0 0 0 1 1 1 0 0 0 0 0 0 0 0 0 0 0 0 0 0 0 0 0 0 0 0 0 0 0 0 0 0 1 1 0 0 0 0 0 0 1 1 1 2 2
0 0 0 0 0 0 0 0 0 0 0 0 0 0 0 0 0 0 0 0 0 0 0 0 0 0 0 0 0 0 0 0 0 0 0 0 0 1 1 0 0 0 0 0 0 0 1 1 1
0 0 0 0 0 0 0 0 0 0 0 0 0 0 0 0 0 0 0 0 0 0 0 0 0 0 0 0 0 0 0 0 0 0 0 0 0 0 0 0 1 0 0 0 0 0 0 1 1
Wind_Speed
17 15 9 6 7 7 5 6 5 6 5 5 3 3 6 7 8 7 6 9 13 17 19 19 16 15 13 12 12 11 10 10 11 11 12 12 11 11 11 10 10 9 9 8 7 7 7 6 6
13 11 7 7 8 4 8 8 8 7 5 2 1 2 4 6 7 6 7 10 15 17 17 16 17 14 13 12 11 11 10 10 10 10 11 11 10 10 9 9 9 9 8 8 7 7 7 6 6
11 8 6 6 4 7 8 10 9 5 1 1 2 3 6 7 6 5 9 13 16 15 15 16 17 14 13 12 10 10 10 10 9 10 10 10 10 9 9 9 9 9 9 8 7 6 7 7 6
7 7 7 8 4 6 6 10 9 6 1 1 2 5 7 8 5 9 14 14 16 15 15 18 16 15 13 12 11 10 10 10 10 10 10 10 10 10 10 10 9 8 8 7 7 6 7 7 7
6 7 8 7 3 5 5 8 8 7 4 3 3 6 8 7 9 13 14 14 15 14 13 18 16 15 14 13 12 11 11 10 10 10 10 10 10 10 10 10 10 9 8 7 6 6 6 7 7
6 6 9 6 5 4 5 8 8 7 5 4 3 6 8 7 10 12 13 13 13 13 12 16 15 15 15 14 13 12 11 11 11 11 11 10 9 9 8 8 8 7 7 7 7 7 7 7 7
7 7 9 8 6 3 8 11 10 9 7 6 3 5 10 10 11 12 12 12 13 13 12 13 15 15 15 14 14 13 13 12 12 12 12 11 10 10 9 8 8 8 8 8 8 9 9 9 9
6 7 10 7 6 4 9 11 11 10 8 5 4 3 8 12 13 13 13 12 12 12 12 11 12 13 14 15 16 15 15 15 14 14 14 13 13 12 12 12 12 11 11 11 11 11 11 11 12
6 8 10 7 5 6 11 12 12 5 5 8 9 9 9 16 15 15 14 13 12 11 11 11 12 12 12 12 14 16 16 16 16 15 16 15 13 14 13 15 13 13 13 13 13 13 13 13 14
8 10 9 5 6 9 10 10 12 8 7 10 9 9 12 14 14 14 14 14 14 14 13 11 11 11 11 9 9 10 11 12 13 11 13 12 11 9 10 9 12 14 14 15 15 14 13 13 10
8 10 8 7 8 8 9 6 10 11 9 13 9 5 10 11 11 11 12 12 13 13 11 10 8 6 7 6 6 5 5 7 10 12 12 10 8 7 8 6 8 12 14 13 12 14 12 11 9
9 10 10 11 9 7 7 4 6 13 10 11 6 7 9 9 9 9 10 10 9 7 5 2 1 2 4 5 4 4 5 5 6 8 10 9 6 8 7 6 7 7 7 8 9 7 10 11 10
11 10 9 8 8 5 2 2 6 12 10 10 10 9 8 7 7 6 6 5 4 2 3 4 5 3 3 4 5 5 5 6 7 7 8 10 8 9 8 7 7 9 8 8 8 9 10 10 11
5 6 5 5 3 3 5 6 6 10 9 11 11 11 10 8 6 6 5 6 7 7 6 6 5 5 4 4 5 5 6 6 7 7 10 11 9 9 8 8 8 9 8 7 7 9 8 9 9
7 7 5 5 3 6 9 9 8 7 8 10 10 10 11 10 10 9 9 8 7 7 6 6 5 5 5 5 5 5 5 6 6 6 8 8 8 8 8 7 8 8 7 7 7 9 8 8 9
8 9 7 7 2 3 8 6 8 5 7 9 9 8 9 9 9 8 7 7 6 6 6 6 6 6 5 5 5 4 4 4 4 5 4 5 6 7 7 7 8 7 6 6 7 8 7 8 8
7 2 4 8 6 2 2 9 7 6 6 8 8 8 7 8 8 7 6 6 7 7 6 6 6 6 6 5 4 4 3 4 4 4 3 4 6 6 6 7 7 6 6 6 7 6 6 7 8
2 1 3 6 7 6 9 10 7 6 6 7 7 7 7 8 8 7 6 6 6 6 6 6 6 7 7 6 4 4 4 4 3 3 4 6 5 7 7 6 7 6 5 6 6 6 6 7 7
5 4 1 7 5 6 10 10 7 6 6 7 7 7 8 8 8 7 7 7 7 8 8 8 9 8 7 7 7 7 6 5 5 4 5 6 6 6 6 6 5 6 6 6 7 6 8 8 6
6 6 2 7 6 5 9 9 7 6 6 6 6 7 7 8 8 8 7 8 9 9 8 8 9 9 8 7 5 5 6 6 5 5 5 7 7 7 6 6 6 6 5 7 7 7 7 6 6
7 7 3 5 7 7 9 9 8 7 6 6 6 6 7 7 7 7 8 8 8 8 9 8 8 8 8 7 6 5 5 5 5 6 5 7 8 7 7 7 7 6 7 6 8 8 10 8 7
4 3 2 6 10 6 9 3 8 7 7 6 5 5 5 4 5 6 7 8 9 9 9 9 9 9 8 8 8 9 7 7 7 6 6 7 7 7 7 6 6 7 7 7 9 9 8 9 8
4 3 3 7 8 4 6 4 8 6 6 6 5 3 2 2 4 6 8 9 10 11 11 10 10 10 10 9 9 9 10 9 7 7 6 7 5 5 6 6 6 6 6 7 9 8 10 8 9
2 4 5 7 8 5 1 5 8 5 4 5 4 2 1 3 5 7 9 11 11 12 12 12 12 12 12 12 11 11 12 11 11 10 9 7 6 4 4 4 4 5 5 6 7 8 11 10 10
5 6 4 4 4 2 3 2 7 6 2 0 1 2 4 5 7 9 11 13 13 13 13 12 12 13 13 14 13 13 13 13 13 12 10 8 8 7 4 4 4 4 4 5 6 7 9 10 10
3 7 6 7 7 2 4 3 7 3 1 2 3 4 5 7 9 10 12 13 13 12 12 12 14 14 15 15 14 13 13 12 12 12 11 11 9 9 7 6 6 6 6 6 5 6 7 7 9
3 4 6 8 6 7 3 7 7 3 2 3 4 5 7 8 10 12 13 13 12 12 13 14 15 15 16 16 15 14 14 13 13 13 13 12 10 10 10 10 9 8 8 7 6 6 6 6 7
6 4 4 7 8 8 4 4 5 4 2 3 5 7 8 10 12 13 13 13 13 14 15 15 16 16 16 16 15 13 15 15 14 14 14 14 14 13 12 12 12 11 10 10 9 7 6 6 6
3 3 6 5 6 9 9 5 7 3 4 6 6 8 10 13 14 14 14 14 14 15 16 16 16 17 16 16 15 15 15 15 15 14 15 14 13 13 13 13 13 13 13 12 11 10 9 9 7
6 6 6 6 5 5 8 4 8 3 5 7 9 11 13 14 15 15 16 15 15 17 17 17 17 17 17 16 16 16 16 16 16 16 16 15 15 14 15 14 15 15 15 15 14 13 12 11 10
Wind_Direction
159 167 185 205 230 226 38 40 11 15 26 24 10 331 343 354 354 27 67 129 140 142 140 151 155 158 159 155 151 149 149 150 153 155 155 155 156 156 156 158 161 164 164 161 155 149 142 139 137
162 167 199 230 260 9 48 26 11 16 10 348 348 305 336 39 41 66 108 131 145 144 144 151 149 156 157 156 154 152 153 153 155 157 157 157 158 160 163 166 169 171 171 164 159 159 154 149 149
162 198 247 248 283 11 15 10 5 352 351 285 22 22 25 37 52 84 117 141 147 142 142 139 150 155 157 158 158 159 160 160 162 164 165 166 168 173 176 177 179 180 172 162 160 164 160 157 162
182 218 235 254 320 33 4 357 355 347 63 64 7 81 76 42 42 106 130 145 143 144 148 139 153 154 157 161 164 167 169 169 171 173 175 177 180 184 186 186 188 186 171 164 165 170 167 165 172
236 252 251 255 358 24 4 359 351 347 17 46 15 74 82 63 90 120 136 143 146 150 145 142 155 156 158 164 170 174 176 177 179 180 183 186 188 191 192 192 193 192 181 176 180 186 188 185 187
235 251 268 298 7 10 17 6 349 3 28 49 35 85 88 107 122 131 136 147 146 147 147 142 155 160 162 166 173 179 182 185 187 187 189 193 195 198 199 198 195 194 189 190 198 206 208 209 207
265 271 284 302 321 359 15 359 3 358 31 45 29 88 117 128 133 137 136 142 146 152 152 154 164 167 170 173 177 182 186 190 194 195 195 196 199 203 206 208 211 212 212 211 212 215 217 216 216
271 274 268 274 299 338 11 359 14 7 41 37 9 62 129 144 146 140 139 142 149 157 159 161 175 175 180 181 183 187 190 193 196 200 201 202 204 208 211 215 210 217 219 221 221 221 222 222 221
248 255 269 290 310 332 0 353 4 7 59 62 38 25 91 137 147 146 143 146 153 162 169 174 177 182 191 193 183 191 196 198 199 202 205 207 213 210 205 217 205 214 224 228 229 228 227 228 225
232 257 275 320 315 323 340 350 354 342 44 43 46 71 113 143 155 157 154 157 162 170 178 182 189 188 199 203 190 202 206 202 209 213 208 213 223 230 229 195 201 220 229 234 236 238 237 234 234
233 263 288 285 290 308 316 348 12 360 23 359 343 119 145 156 164 161 158 165 168 175 183 190 197 207 220 216 215 212 219 216 218 222 222 226 230 235 240 226 208 221 227 234 228 226 233 232 231
248 262 272 278 294 299 308 327 33 37 11 349 16 122 145 158 157 158 160 163 163 172 178 185 10 324 301 293 270 252 246 236 235 230 230 229 229 233 233 235 235 231 230 233 243 238 236 240 239
246 267 282 287 282 284 269 88 80 41 23 34 66 91 110 124 138 140 134 137 122 79 37 15 0 346 324 300 286 270 265 262 253 244 242 238 236 236 233 235 238 242 241 235 236 245 244 241 237
278 283 292 315 296 200 157 107 76 41 42 57 66 72 74 75 75 75 64 49 34 21 10 3 354 349 329 301 286 282 276 269 267 256 250 246 246 245 243 242 241 244 245 247 247 247 248 246 243
271 258 166 66 111 141 146 93 54 47 63 70 69 68 65 56 50 41 33 26 18 8 359 353 344 357 346 323 308 289 283 281 277 272 266 258 255 255 251 251 246 244 244 244 247 250 247 246 245
231 222 161 78 54 172 243 93 58 56 78 76 76 75 69 57 51 43 37 28 20 11 9 7 358 4 357 346 325 314 311 305 297 293 284 281 274 267 260 253 250 246 243 238 240 243 242 242 245
208 202 104 104 49 161 171 89 68 54 75 77 73 71 68 64 53 48 40 39 33 28 23 25 22 9 359 355 342 332 321 307 302 295 289 289 282 272 261 255 251 241 233 231 240 239 245 248 244
9 316 85 81 63 90 95 95 78 66 68 69 68 68 66 61 54 50 47 48 50 46 41 33 34 23 3 4 353 344 332 318 311 304 299 291 275 261 253 250 246 240 230 229 233 242 242 257 254
316 297 38 89 91 80 94 93 81 74 75 74 69 67 70 70 69 63 58 55 59 52 46 36 28 24 10 10 359 353 347 336 339 336 335 317 297 274 256 256 242 242 240 240 236 235 233 238 243
265 264 177 116 117 112 113 102 95 83 74 67 72 77 79 80 76 67 61 57 50 44 34 30 26 21 12 13 354 347 335 328 342 344 351 344 332 312 278 256 248 237 245 241 245 239 256 245 227
259 277 275 151 147 160 153 132 125 117 113 109 99 89 81 72 64 56 45 38 32 24 15 12 7 3 5 352 344 346 336 327 349 350 353 352 342 335 321 296 271 255 248 242 237 237 241 251 239
276 2 285 178 199 185 221 186 136 137 138 129 120 111 95 74 49 28 15 10 4 358 354 352 347 346 343 331 338 340 333 334 338 330 343 336 340 341 339 324 301 275 253 246 241 233 239 246 250
11 350 242 213 232 222 206 239 132 164 162 146 138 124 85 34 2 352 348 346 343 340 338 336 336 332 328 322 312 305 310 316 312 314 316 313 322 326 336 336 324 303 281 261 250 248 237 237 246
157 187 182 212 229 219 140 265 132 151 145 144 153 166 281 310 317 324 328 329 328 328 328 329 330 327 324 315 307 298 298 297 298 296 299 295 298 294 304 315 317 309 301 288 268 255 241 239 244
236 274 257 232 234 103 131 267 93 96 90 299 237 246 273 293 306 316 323 325 322 322 326 328 330 329 326 320 313 305 297 291 283 281 284 282 284 281 274 277 279 287 285 282 277 265 259 246 238
358 323 335 324 328 1 165 94 99 83 59 277 272 277 283 296 313 322 325 323 319 321 324 327 328 325 322 319 317 311 301 292 290 289 289 285 279 278 277 257 249 252 257 262 264 263 257 254 246
329 4 351 298 291 289 124 122 129 151 225 257 272 280 290 308 315 317 323 323 320 317 319 322 322 320 320 319 315 306 305 302 298 295 282 277 274 273 262 251 246 241 237 239 244 250 253 250 246
28 358 311 319 327 314 300 174 136 155 305 282 280 294 306 310 312 319 323 323 322 319 318 318 318 319 318 316 317 316 316 309 304 297 293 289 285 278 271 261 253 246 238 229 226 232 234 240 239
46 34 345 328 342 322 322 30 86 37 327 310 307 310 315 318 319 321 320 323 322 320 319 320 320 318 316 315 316 314 310 309 305 299 293 287 281 279 273 265 260 252 243 234 226 229 218 223 230
50 22 356 339 347 318 308 29 106 20 321 306 310 316 319 320 319 320 321 322 321 321 321 319 319 316 315 315 313 309 307 304 302 299 299 296 288 279 271 267 263 258 250 239 230 229 222 217 218